This demonstration page uses our WeatherBlox Daily Observations layout. Learn more.

Left ArrowRight Arrow

Hourly Observations for September 5, 2015

Temp ( °F °C ) Dew Point ( °F °C ) Humidity (%) Winds ( mph kmh ) Pressure ( in mb ) Visibility ( mi km ) Precip ( " mm )
12:52 am 00:52 Mostly Cloudy 78 25.6 68 20 71 71 SSE 15 24 29.88 1012 10 16 0.00 0.00
1:52 am 01:52 Mostly Cloudy 78 25.6 69 20.6 74 74 SSE 15 24 29.88 1012 10 16 0.00 0.00
2:52 am 02:52 Mostly Cloudy 77 25 69 20.6 77 77 SSE 13 20 29.89 1012 10 16 0.00 0.00
3:52 am 03:52 Mostly Cloudy 76 24.4 69 20.6 79 79 SSE 13 20 29.89 1012 10 16 0.00 0.00
4:52 am 04:52 Mostly Cloudy 76 24.4 69 20.6 79 79 SSE 15 24 29.89 1012 10 16 0.00 0.00
5:52 am 05:52 Mostly Cloudy 76 24.4 69 20.6 79 79 SSE 17 28 29.89 1012 10 16 0.00 0.00
6:52 am 06:52 Mostly Cloudy 76 24.4 69 20.6 79 79 SSE 15 24 29.91 1013 10 16 0.00 0.00
7:52 am 07:52 Mostly Cloudy 76 24.4 69 20.6 79 79 SSE 16 26 29.91 1013 10 16 0.00 0.00
8:52 am 08:52 Partly Cloudy 78 25.6 70 21.1 76 76 S 14 22 29.92 1013 10 16 0.00 0.00
9:52 am 09:52 Partly Cloudy 82 27.8 70 21.1 67 67 S 15 24 29.91 1013 10 16 0.00 0.00
10:52 am 10:52 Partly Cloudy 85 29.4 71 21.7 63 63 SSE 17 28 29.92 1013 10 16 0.00 0.00
11:52 am 11:52 Mostly Cloudy 89 31.7 71 21.7 55 55 S 20 31 29.90 1013 10 16 0.00 0.00
12:52 pm 12:52 Mostly Cloudy 90 32.2 71 21.7 54 54 S 18 30 29.89 1012 10 16 0.00 0.00
1:52 pm 13:52 Mostly Cloudy 93 33.9 71 21.7 49 49 S 13 20 29.87 1012 10 16 0.00 0.00
2:52 pm 14:52 Mostly Cloudy 93 33.9 70 21.1 47 47 S 21 33 29.87 1012 10 16 0.00 0.00
3:52 pm 15:52 Mostly Cloudy 94 34.4 70 21.1 46 46 S 16 26 29.86 1011 10 16 0.00 0.00
4:52 pm 16:52 Mostly Cloudy 93 33.9 68 20 44 44 S 20 31 29.85 1011 10 16 0.00 0.00
5:52 pm 17:52 Mostly Cloudy 92 33.3 70 21.1 49 49 S 21 33 29.85 1011 10 16 0.00 0.00
6:52 pm 18:52 Mostly Cloudy 88 31.1 72 22.2 59 59 SSE 14 22 29.85 1011 10 16 0.00 0.00
7:52 pm 19:52 Mostly Cloudy 86 30 71 21.7 61 61 SSE 16 26 29.85 1011 10 16 0.00 0.00
8:52 pm 20:52 Mostly Cloudy 85 29.4 70 21.1 61 61 SSE 17 28 29.84 1011 10 16 0.00 0.00
9:52 pm 21:52 Mostly Cloudy 85 29.4 71 21.7 63 63 S 17 28 29.86 1011 10 16 0.00 0.00
10:52 pm 22:52 Cloudy 83 28.3 71 21.7 67 67 S 15 24 29.86 1011 10 16 0.00 0.00
11:52 pm 23:52 Cloudy 81 27.2 71 21.7 72 72 SSE 17 28 29.85 1011 10 16 0.00 0.00

Powered by AerisWeather